Location: Treviso
(45.6669°N, 12.2430°E)
Time: 15:57:23
(UTC+02:00)

ISS - Visible Passes

Search period start: 22 May 2018 00:00
Search period end: 01 June 2018 00:00
Orbit: 402 x 407 km, 51.6° (Epoch: 23 May)

Date Brightness Start Highest point End Pass type
(mag) Time Alt. Az. Time Alt. Az. Time Alt. Az.
22 May -1.7 01:30:30 10° WNW 01:33:24 28° N 01:36:17 10° ENE visible
22 May -3.4 03:07:02 10° WNW 03:10:18 62° NNE 03:13:31 10° ESE visible
22 May -2.6 04:43:56 10° W 04:46:33 22° SW 04:49:09 10° SSE visible
22 May -3.0 21:24:47 10° SSW 21:27:43 30° SE 21:30:39 10° ENE visible
22 May -2.9 23:00:54 10° W 23:04:06 49° NNW 23:07:18 10° NE visible
23 May -1.6 00:38:11 10° WNW 00:41:04 27° N 00:43:55 10° ENE visible
23 May -2.6 02:14:55 10° NW 02:18:04 43° NNE 02:21:12 10° E visible
23 May -3.4 03:51:28 10° WNW 03:54:33 38° SW 03:57:36 10° SSE visible
23 May -3.7 22:08:37 10° WSW 22:11:52 75° NNW 22:15:10 10° ENE visible
23 May -1.7 23:45:48 10° WNW 23:48:43 29° N 23:51:38 10° NE visible
24 May -2.1 01:22:45 10° NW 01:25:46 33° NNE 01:27:56 16° ENE visible
24 May -1.9 02:59:12 10° WNW 03:07:35 - SE 03:00:20 20° WNW visible
24 May -3.9 21:16:29 10° SW 21:19:43 66° SSE 21:22:59 10° ENE visible
24 May -2.0 22:53:21 10° W 22:56:23 34° NNW 22:59:25 10° NE visible
25 May -1.8 00:30:31 10° NW 00:33:26 29° N 00:35:45 14° ENE visible
25 May -1.9 02:07:00 10° WNW 02:08:20 22° NW 02:08:20 22° NW visible
25 May -2.6 22:00:55 10° W 22:04:05 44° NNW 22:07:14 10° NE visible
25 May -1.7 23:38:12 10° WNW 23:41:04 27° N 23:43:57 10° ENE visible
26 May -2.5 01:14:50 10° NW 01:17:17 39° NNW 01:17:17 39° NNW visible
26 May -1.7 22:45:48 10° WNW 22:48:41 28° N 22:51:35 10° ENE visible
27 May -2.3 00:22:39 10° NW 00:25:43 36° NNE 00:26:28 31° NE visible
27 May -1.9 21:53:19 10° WNW 21:56:18 32° N 21:59:18 10° NE visible
27 May -1.9 23:30:24 10° NW 23:33:22 30° N 23:35:45 14° ENE visible
28 May -1.9 01:06:51 10° WNW 01:08:22 25° WNW 01:08:22 25° WNW visible
28 May -1.8 22:38:05 10° WNW 22:40:57 27° N 22:43:50 10° ENE visible
29 May -3.2 00:14:39 10° WNW 00:17:42 55° N 00:17:42 55° N visible
29 May -1.7 21:45:40 10° WNW 21:48:32 27° N 21:51:25 10° ENE visible
29 May -2.6 23:22:26 10° NW 23:25:33 40° NNE 23:27:05 24° ENE visible
30 May -1.4 00:58:56 10° WNW 00:59:43 16° WNW 00:59:43 16° WNW visible
30 May -2.1 22:30:10 10° NW 22:33:10 32° N 22:36:09 10° ENE visible
31 May -3.1 00:06:36 10° WNW 00:09:07 49° WNW 00:09:07 49° WNW visible
31 May -1.9 21:37:50 10° WNW 21:40:44 28° N 21:43:38 10° ENE visible
31 May -3.6 23:14:21 10° WNW 23:17:37 65° NNE 23:18:32 41° E visible
